LORIS (55125 NORAD) Tracking and Keplerian Element Data

This shows tracking and keplerian element data for the satellite.

Feedback or suggestion? Click here.




ElementValue
Catalog55125
NameLORIS
Epoch Orbit238
Epoch Day13.29547392
Epoch Year2023
RAAN15.6352
Inclination51.6419
Eccentricity0.0002969
Argument of Perigee313.5377
Mean Anonmoly46.5366
Mean Motion15.52021787
Decay Rate0.00065221
L11 55125U 98067US 23013.29547392 .00065221 00000+0 10621-2 0 9995
L22 55125 51.6419 15.6352 0002969 313.5377 46.5366 15.52021787 2384



Live tracking and technical data element details for LORIS (NORAD 55125). LORIS can be tracked NOW for your location showing map with azimuth and elevation plus other details from your city location.







IsCatalogInMostPopularTable: catalog: 55125, numindb: 3
Update: records affected: 1



GetName: 55125 LORIS

Hit Count: updated at: Tue, 07 Feb 2023 15:12:01 GMT